Location: Góry Miechowskie
(50.3599°N, 20.1803°E)
Time: 21:54:14
(UTC+00:00)

S-56A Canister/Altair - Pass Details

Date: 13 September 2024
Orbit: 636 x 2487 km, 38.9° (Epoch: 09 October)

Event Time Altitude Azimuth Distance (km) Brightness Sun altitude
Rises 18:35:59 0° 234° (SW) 3,510 11.3 -16.0°
Reaches altitude 10° 18:38:26 10° 225° (SW) 2,761 10.6 -16.3°
Maximum altitude 18:44:23 34° 162° (SSE) 1,978 9.2 -17.2°
Enters shadow 18:48:08 25° 123° (ESE) 2,625 9.6 -17.7°
Drops below altitude 10° 18:52:50 10° 104° (ESE) 3,960 - -18.4°
Sets 18:57:05 0° 96° (E) 5,267 - -19.0°
